Regional Weather Roundup
Issued by NWS

Home | Current Version | Previous Version | Graphics & Text | Print | Product List | Glossary On
Versions: 1 2 3 4 5 6 7 8 9 10 11 12 13 14 15 16 17 18 19 20 21 22 23 24 25 26 27 28 29 30 31 32 33 34 35 36 37 38 39 40 41 42 43 44 45 46 47 48 49 50
000
ASUS43 KBIS 271902
RWRND

NORTH DAKOTA REGIONAL WEATHER ROUNDUP
NATIONAL WEATHER SERVICE BISMARCK ND
100 PM CST MON FEB 27 2017

NOTE: "FAIR" INDICATES FEW OR NO CLOUDS BELOW 12,000 FEET WITH NO
SIGNIFICANT WEATHER AND/OR OBSTRUCTIONS TO VISIBILITY.


NDZ001>003-009>011-017-272000-
NORTHWEST NORTH DAKOTA

CITY           SKY/WX    TMP DP  RH WIND       PRES   REMARKS
WILLISTON      NOT AVBL
MINOT          LGT SNOW  14   8  77 N7        29.86S WCI   4
MINOT AFB      LGT SNOW  12   6  76 N7        29.86S WCI   1
$$

NDZ018>021-031>035-040>046-272000-
SOUTHWEST NORTH DAKOTA

CITY           SKY/WX    TMP DP  RH WIND       PRES   REMARKS
BISMARCK       NOT AVBL
DICKINSON      CLOUDY    19  14  81 E15       29.69F HAZE    WCI   5
GARRISON         N/A     15   9  76 NE12      29.81F WCI   2
$$

NDZ004>008-012>016-024-026-027-054-272000-
NORTHEAST NORTH DAKOTA

CITY           SKY/WX    TMP DP  RH WIND       PRES   REMARKS
GRND FRKS AFB  CLOUDY    28  18  64 W3        29.90F
$$

NDZ022-023-025-028>030-036>039-047>053-272000-
SOUTHEAST NORTH DAKOTA

CITY           SKY/WX    TMP DP  RH WIND       PRES   REMARKS
FARGO          NOT AVBL
JAMESTOWN      FAIR      26  19  74 E8        29.80F WCI  18
$$




USA.gov is the U.S. government's official web portal to all federal, state and local government web resources and services.